Weather History for KNQA - February, 2014

Change the Weather History Date:

Wednesday, February 5, 2014

  Actual Average Record
Temperature  
Mean Temperature 30 °F -  
Max Temperature 35 °F 50 °F 73 °F (2008)
Min Temperature 24 °F 34 °F 17 °F (2007)
Degree Days  
Heating Degree Days 34    
Moisture  
Dew Point 28 °F    
Average Humidity 89    
Maximum Humidity 100    
Minimum Humidity 74    
Precipitation  
Precipitation 0.00 in - - ()
Sea Level Pressure  
Sea Level Pressure 30.24 in    
Wind  
Wind Speed 6 mph (WNW)    
Max Wind Speed 10 mph    
Max Gust Speed -    
Visibility 9 miles    
Events      
Averages and records for this station are not official NWS values.
T = Trace of Precipitation, MM = Missing Value Source: NWS Daily Summary

Daily Weather History Graph

Daily Weather History Graph

Search for Another Location

Airport or City:

Trip Planner

Search our weather history database for the weather conditions in past years. The results will help you decide how hot, cold, wet, or windy it might be!

Date:

Astronomy

Feb. 05, 2014 Rise Set
Actual Time 6:55 AM CST 5:31 PM CST
Civil Twilight 6:29 AM CST 5:58 PM CST
Nautical Twilight 5:58 AM CST 6:28 PM CST
Astronomical Twilight 5:29 AM CST 6:58 PM CST
Moon 10:25 AM CST (2/5) No Moon Set
Length of Visible Light 11h 29m
Length of Day
10h 36m
Waxing Crescent, 39% of the Moon is Illuminated
Feb 5
Waxing Crescent
Feb 6
First Quarter
Feb 14
Full
Feb 22
Last Quarter
Mar 1
New

Hourly Weather History & Observations

Time (CST) Temp. Windchill Dew Point Humidity Pressure Visibility Wind Dir Wind Speed Gust Speed Precip Events Conditions
12:50 AM 33.8 °F 28.6 °F 33.8 °F 100% 29.98 in 3.0 mi West 5.8 mph - N/A   Overcast
2:15 AM 33.8 °F 28.6 °F 32.0 °F 93% 30.00 in 8.0 mi West 5.8 mph - N/A   Overcast
2:35 AM 33.8 °F 28.6 °F 33.8 °F 100% 30.01 in 5.0 mi West 5.8 mph - N/A   Overcast
2:55 AM 33.8 °F 28.6 °F 32.0 °F 93% 30.01 in 6.0 mi West 5.8 mph - N/A   Mostly Cloudy
3:15 AM 33.8 °F 28.6 °F 33.8 °F 100% 30.03 in 6.0 mi WSW 5.8 mph - N/A   Overcast
3:35 AM 33.8 °F 29.6 °F 32.0 °F 93% 30.03 in 8.0 mi WSW 4.6 mph - N/A   Overcast
3:55 AM 33.8 °F 29.6 °F 32.0 °F 93% 30.04 in 9.0 mi WSW 4.6 mph - N/A   Overcast
4:15 AM 33.8 °F 29.6 °F 33.8 °F 100% 30.04 in 8.0 mi WSW 4.6 mph - N/A   Overcast
4:35 AM 33.8 °F 29.6 °F 33.8 °F 100% 30.06 in 6.0 mi WSW 4.6 mph - N/A   Overcast
4:55 AM 33.8 °F 29.6 °F 33.8 °F 100% 30.07 in 4.0 mi WSW 4.6 mph - N/A   Mostly Cloudy
5:30 AM 33.8 °F 28.6 °F 33.8 °F 100% 30.10 in 7.0 mi WSW 5.8 mph - N/A   Overcast
5:54 AM 35.6 °F 30.7 °F 33.8 °F 93% 30.12 in 10.0 mi WSW 5.8 mph - N/A   Overcast
6:50 AM 33.8 °F 28.6 °F 33.8 °F 100% 30.15 in 10.0 mi West 5.8 mph - N/A   Overcast
7:50 AM 33.8 °F 27.7 °F 32.0 °F 93% 30.18 in 10.0 mi WNW 6.9 mph - N/A   Overcast
8:50 AM 33.8 °F 25.8 °F 28.4 °F 81% 30.23 in 10.0 mi WNW 10.4 mph - N/A   Overcast
9:50 AM 30.2 °F 23.4 °F 24.8 °F 80% 30.29 in 10.0 mi NW 6.9 mph - N/A   Overcast
10:50 AM 28.4 °F 19.7 °F 24.8 °F 86% 30.33 in 10.0 mi NW 9.2 mph - N/A   Overcast
11:50 AM 28.4 °F 21.2 °F 21.2 °F 74% 30.35 in 10.0 mi NW 6.9 mph - N/A   Overcast
12:50 PM 28.4 °F 19.7 °F 21.2 °F 74% 30.34 in 10.0 mi NW 9.2 mph - N/A   Overcast
1:50 PM 28.4 °F 21.2 °F 23.0 °F 80% 30.34 in 10.0 mi NW 6.9 mph - N/A   Overcast
2:50 PM 28.4 °F - 24.8 °F 86% 30.34 in 10.0 mi Calm Calm - N/A   Overcast
3:50 PM 28.4 °F 22.2 °F 23.0 °F 80% 30.39 in 10.0 mi NNW 5.8 mph - N/A   Overcast
4:50 PM 28.4 °F 22.2 °F 23.0 °F 80% 30.42 in 10.0 mi NNW 5.8 mph - N/A   Overcast
5:50 PM 28.4 °F - 24.8 °F 86% 30.45 in 10.0 mi Calm Calm - N/A   Overcast
6:53 PM 28.4 °F 23.3 °F 24.8 °F 86% 30.45 in 10.0 mi North 4.6 mph - N/A   Overcast
7:55 PM 28.4 °F - 24.8 °F 86% 30.45 in 10.0 mi Calm Calm - N/A   Overcast
8:50 PM 28.4 °F 23.3 °F 24.8 °F 86% 30.48 in 10.0 mi North 4.6 mph - N/A   Overcast
9:50 PM 26.6 °F 21.2 °F 23.0 °F 86% 30.51 in 10.0 mi North 4.6 mph - N/A   Overcast
10:50 PM 26.6 °F 21.2 °F 21.2 °F 80% 30.49 in 10.0 mi North 4.6 mph - N/A   Overcast
11:55 PM 24.8 °F 19.1 °F 21.2 °F 86% 30.48 in 10.0 mi North 4.6 mph - N/A   Overcast